Terminal Aerodrome Forecast
Issued by NWS

Current Version | Previous Version | Graphics & Text | Print | Product List | Glossary On
Versions: 1 2 3 4 5 6 7 8 9 10 11 12 13 14 15 16 17 18 19 20 21 22 23 24 25 26
344
FTUS41 KILN 041603 AAB
TAFLUK
TAF AMD
KLUK 041603Z 0416/0512 23010G17KT 6SM -SHRA OVC050
     FM041800 24011G20KT 4SM -SHRA BR VCTS SCT018 OVC028CB
     FM042100 32012KT P6SM VCSH BKN018 OVC025
     FM050300 32011KT P6SM VCSH OVC015
     FM050800 32008KT P6SM VCSH OVC008=

USA.gov is the U.S. government's official web portal to all federal, state and local government web resources and services.